EW6504 Weather Reports


time (UTC)temp
C
wind
direction
speed
KPH
gust
KPH
rain 1hr
cm
rain 24hr
cm
rain mn
cm
humidity
%
barometer
mb
20260504205009 23 346 20.9 38.6 0.00 0.00 0.00 30 1004.4
20260504204517 23 11 22.5 38.6 0.00 0.00 0.00 30 1004.1
20260504202506 23 349 19.3 38.6 0.00 0.00 0.00 33 1003.9
20260504202007 23 355 22.5 38.6 0.00 0.00 0.00 33 1003.9
20260504201521 23 24 25.7 41.8 0.00 0.00 0.00 32 1003.8
20260504201004 23 27 27.4 41.8 0.00 0.00 0.00 33 1003.8
20260504200503 24 25 25.7 40.2 0.00 0.00 0.00 33 1003.8
20260504200017 23 327 24.1 38.6 0.00 0.00 0.00 34 1003.7
20260504195508 23 11 24.1 38.6 0.00 0.00 0.00 33 1003.8
20260504195004 23 360 20.9 38.6 0.00 0.00 0.00 35 1003.8
20260504194517 23 360 20.9 38.6 0.00 0.00 0.00 34 1003.7
20260504194008 23 42 29.0 38.6 0.00 0.00 0.00 34 1003.8
20260504193504 23 12 22.5 33.8 0.00 0.00 0.00 35 1003.9
20260504192504 23 22 25.7 35.4 0.00 0.00 0.00 34 1003.9
20260504192005 23 330 20.9 37.0 0.00 0.00 0.00 34 1003.9
20260504191519 23 23 22.5 37.0 0.00 0.00 0.00 35 1003.8
20260504191008 23 355 20.9 33.8 0.00 0.00 0.00 34 1003.9
20260504190505 24 360 24.1 37.0 0.00 0.00 0.00 34 1004.0
20260504190018 24 32 24.1 37.0 0.00 0.00 0.00 33 1003.9
20260504185512 25 22 19.3 35.4 0.00 0.00 0.00 32 1003.9
20260504185011 24 360 24.1 35.4 0.00 0.00 0.00 33 1003.8
20260504184517 24 19 14.5 35.4 0.00 0.00 0.00 32 1003.9
20260504184003 25 355 20.9 49.9 0.00 0.00 0.00 32 1003.8
20260504183508 24 21 22.5 49.9 0.00 0.00 0.00 32 1003.7
20260504183022 25 9 19.3 30.6 0.00 0.00 0.00 32 1003.6
20260504180507 25 19 27.4 40.2 0.00 0.00 0.00 31 1003.5
20260504180018 25 321 22.5 35.4 0.00 0.00 0.00 29 1003.5
20260504175507 25 17 20.9 30.6 0.00 0.00 0.00 28 1003.5
20260504175009 25 319 14.5 29.0 0.00 0.00 0.00 27 1003.5
20260504174520 25 334 11.3 29.0 0.00 0.00 0.00 26 1003.4
20260504174007 25 300 19.3 29.0 0.00 0.00 0.00 26 1003.5
20260504173510 25 293 16.1 29.0 0.00 0.00 0.00 25 1003.5
20260504173030 25 308 17.7 29.0 0.00 0.00 0.00 24 1003.6
20260504172507 25 265 19.3 29.0 0.00 0.00 0.00 24 1003.6
20260504172006 25 314 19.3 32.2 0.00 0.00 0.00 25 1003.6
20260504171522 25 313 16.1 32.2 0.00 0.00 0.00 25 1003.7
20260504151011 20 257 8.0 14.5 0.00 0.00 0.00 41 1004.2
20260504150507 19 261 6.4 16.1 0.00 0.00 0.00 44 1004.3
20260504141009 16 257 8.0 16.1 0.00 0.00 0.00 52 1004.5
20260504140506 16 244 9.7 16.1 0.00 0.00 0.00 52 1004.6
20260504130507 11 275 3.2 14.5 0.00 0.00 0.00 63 1004.4
20260504110503 10 198 1.6 3.2 0.00 0.00 0.00 65 1003.6
20260504100507 12 150 1.6 4.8 0.00 0.00 0.00 58 1003.7
20260504082007 13 163 4.8 9.7 0.00 0.00 0.00 54 1004.2
20260504081526 13 161 4.8 11.3 0.00 0.00 0.00 54 1004.3
20260504081007 13 160 4.8 12.9 0.00 0.00 0.00 54 1004.4
20260504080508 13 156 8.0 14.5 0.00 0.00 0.00 53 1004.4
20260504050506 13 101 3.2 6.4 0.00 0.00 0.00 51 1007.3
20260504050020 13 101 3.2 9.7 0.00 0.00 0.00 50 1007.4
20260504045506 13 101 3.2 9.7 0.00 0.00 0.00 49 1007.4
20260504045007 13 101 4.8 9.7 0.00 0.00 0.00 48 1007.4
20260504044508 14 101 3.2 9.7 0.00 0.00 0.00 48 1007.4
20260504044003 14 101 4.8 9.7 0.00 0.00 0.00 48 1007.5
20260504043503 13 101 4.8 9.7 0.00 0.00 0.00 48 1007.5
20260504043005 14 101 3.2 11.3 0.00 0.00 0.00 48 1007.4
20260504042503 14 101 4.8 11.3 0.00 0.00 0.00 48 1007.4
20260504042006 15 101 4.8 11.3 0.00 0.00 0.00 47 1007.5
20260504041512 15 100 3.2 9.7 0.00 0.00 0.00 47 1007.6
20260504041004 15 96 1.6 9.7 0.00 0.00 0.00 46 1007.6
20260504040507 15 96 1.6 11.3 0.00 0.00 0.00 46 1007.6
20260504040032 15 96 3.2 12.9 0.00 0.00 0.00 46 1007.7
20260504035511 15 92 3.2 12.9 0.00 0.00 0.00 47 1007.7
20260504035006 15 86 4.8 12.9 0.00 0.00 0.00 49 1007.7
20260504034531 14 84 4.8 9.7 0.00 0.00 0.00 50 1007.7
20260504034003 14 72 6.4 9.7 0.00 0.00 0.00 50 1007.8
20260504033505 14 66 3.2 6.4 0.00 0.00 0.00 50 1008.0
20260504033004 15 64 4.8 8.0 0.00 0.00 0.00 49 1008.1
20260504032503 15 62 3.2 8.0 0.00 0.00 0.00 49 1008.1
20260504032004 15 60 3.2 8.0 0.00 0.00 0.00 49 1008.2
20260504031507 15 60 4.8 9.7 0.00 0.00 0.00 47 1008.1
20260504031005 16 55 4.8 9.7 0.00 0.00 0.00 46 1008.2
20260504030504 16 53 6.4 9.7 0.00 0.00 0.00 46 1008.1
20260504030014 16 52 4.8 9.7 0.00 0.00 0.00 46 1008.2
20260504025505 16 47 4.8 6.4 0.00 0.00 0.00 45 1008.2
20260504025005 16 47 3.2 9.7 0.00 0.00 0.00 44 1008.2
20260504024521 17 47 3.2 9.7 0.00 0.00 0.00 41 1008.2
20260504024011 17 47 3.2 6.4 0.00 0.00 0.00 41 1008.3
20260504023508 17 47 3.2 6.4 0.00 0.00 0.00 41 1008.2
20260504023005 17 47 1.6 6.4 0.00 0.00 0.00 42 1008.2
20260504022504 17 47 3.2 9.7 0.00 0.00 0.00 42 1008.3
20260504022003 17 47 3.2 9.7 0.00 0.00 0.00 43 1008.3
20260504021506 17 44 1.6 6.4 0.00 0.00 0.00 44 1008.3
20260504021004 17 44 1.6 6.4 0.00 0.00 0.00 44 1008.3
20260504020503 17 44 3.2 8.0 0.00 0.00 0.00 43 1008.2
20260504020028 17 44 3.2 9.7 0.00 0.00 0.00 43 1008.3
20260504015505 18 42 4.8 9.7 0.00 0.00 0.00 42 1008.3
20260504015007 18 34 4.8 9.7 0.00 0.00 0.00 40 1008.3
20260504014523 18 34 6.4 9.7 0.00 0.00 0.00 39 1008.3
20260504014005 18 34 4.8 8.0 0.00 0.00 0.00 39 1008.3
20260504013507 19 34 3.2 12.9 0.00 0.00 0.00 40 1008.4
20260504013029 19 34 6.4 12.9 0.00 0.00 0.00 39 1008.3
20260504012507 20 34 4.8 12.9 0.00 0.00 0.00 38 1008.3
20260504012008 20 32 4.8 12.9 0.00 0.00 0.00 37 1008.3
20260504011505 20 24 6.4 12.9 0.00 0.00 0.00 37 1008.3
20260504011007 20 22 8.0 12.9 0.00 0.00 0.00 36 1008.3
20260504010503 21 22 4.8 9.7 0.00 0.00 0.00 36 1008.3
20260504010009 21 23 4.8 11.3 0.00 0.00 0.00 36 1008.4
20260504005503 21 22 6.4 11.3 0.00 0.00 0.00 35 1008.5
20260504005006 21 19 6.4 12.9 0.00 0.00 0.00 34 1008.5
20260504004520 21 20 6.4 14.5 0.00 0.00 0.00 33 1008.5
20260504004005 22 22 8.0 17.7 0.00 0.00 0.00 33 1008.7
20260504003507 22 18 11.3 17.7 0.00 0.00 0.00 32 1008.7
20260504003020 22 24 8.0 16.1 0.00 0.00 0.00 31 1008.8
20260504002508 23 32 3.2 9.7 0.00 0.00 0.00 29 1008.9
20260504002006 23 32 4.8 8.0 0.00 0.00 0.00 28 1008.9
20260504001524 23 32 3.2 6.4 0.00 0.00 0.00 29 1009.0
20260504001008 23 32 0.0 4.8 0.00 0.00 0.00 28 1009.0
20260504000503 23 32 3.2 6.4 0.00 0.00 0.00 28 1009.1
20260504000007 23 32 1.6 6.4 0.00 0.00 0.00 27 1009.1
20260503235503 23 32 3.2 6.4 0.00 0.00 0.00 28 1009.2
20260503235003 23 32 0.0 3.2 0.00 0.00 0.00 28 1009.2
20260503234510 23 32 0.0 6.4 0.00 0.00 0.00 27 1009.3
20260503234011 23 32 1.6 6.4 0.00 0.00 0.00 28 1009.3
20260503233507 23 32 0.0 4.8 0.00 0.00 0.00 27 1009.4
20260503233016 23 32 0.0 9.7 0.00 0.00 0.00 29 1009.4
20260503232510 23 32 4.8 9.7 0.00 0.00 0.00 28 1009.5
20260503232011 23 32 1.6 6.4 0.00 0.00 0.00 29 1009.5
20260503231522 23 32 3.2 16.1 0.00 0.00 0.00 28 1009.5
20260503231009 23 32 1.6 19.3 0.00 0.00 0.00 29 1009.6
20260503230508 23 32 9.7 19.3 0.00 0.00 0.00 28 1009.6
20260503230023 23 26 6.4 19.3 0.00 0.00 0.00 28 1009.6
20260503225503 23 22 9.7 19.3 0.00 0.00 0.00 28 1009.6
20260503225003 23 355 3.2 19.3 0.00 0.00 0.00 28 1009.7
20260503224512 23 355 12.9 19.3 0.00 0.00 0.00 27 1009.7
20260503224005 23 20 9.7 19.3 0.00 0.00 0.00 27 1009.7
20260503223507 23 17 6.4 11.3 0.00 0.00 0.00 28 1009.8
20260503223012 23 19 4.8 11.3 0.00 0.00 0.00 28 1009.8
20260503222503 23 19 0.0 11.3 0.00 0.00 0.00 27 1009.8
20260503222007 23 19 4.8 11.3 0.00 0.00 0.00 27 1009.9
20260503221528 23 21 3.2 11.3 0.00 0.00 0.00 27 1010.0
20260503221008 23 21 0.0 17.7 0.00 0.00 0.00 29 1009.9
20260503220508 23 21 3.2 17.7 0.00 0.00 0.00 28 1010.0
20260503220026 23 25 9.7 20.9 0.00 0.00 0.00 28 1010.0
20260503215507 23 20 6.4 20.9 0.00 0.00 0.00 28 1010.1
20260503215013 23 5 9.7 20.9 0.00 0.00 0.00 28 1010.1
20260503214506 23 5 1.6 16.1 0.00 0.00 0.00 29 1010.2
20260503214005 23 5 8.0 17.7 0.00 0.00 0.00 28 1010.3
20260503213502 23 360 8.0 17.7 0.00 0.00 0.00 28 1010.3
20260503213025 23 360 6.4 19.3 0.00 0.00 0.00 29 1010.4
20260503212506 22 343 12.9 22.5 0.00 0.00 0.00 28 1010.4
20260503212006 23 360 14.5 22.5 0.00 0.00 0.00 28 1010.5
20260503211520 23 360 12.9 20.9 0.00 0.00 0.00 28 1010.5
20260503211011 23 37 6.4 20.9 0.00 0.00 0.00 28 1010.6
20260503210506 23 26 14.5 19.3 0.00 0.00 0.00 29 1010.7
20260503210021 23 13 9.7 17.7 0.00 0.00 0.00 29 1010.7
20260503205507 23 342 6.4 16.1 0.00 0.00 0.00 29 1010.7